SCP
2 1 1 1 1 1 1 2 2 3 4 4 4 4 3 3 3 3 3 3 3 3 3 2 2 2 2 1 1 1 1 1 1 0 0 0 0 1 1 1 1 0 0
2 1 1 1 1 1 1 2 2 3 4 4 4 4 4 4 3 3 3 3 3 2 2 2 2 2 2 1 1 1 1 1 0 0 0 0 0 0 1 1 1 0 0
1 1 1 2 2 2 2 2 3 3 3 4 5 5 5 5 4 4 3 3 2 2 2 2 2 1 1 1 1 1 1 0 0 0 0 0 0 0 0 0 0 1 1
1 1 1 1 2 2 2 3 3 3 3 4 4 5 5 5 4 4 3 2 2 1 1 1 1 1 1 1 1 0 0 0 0 0 0 1 1 1 0 0 0 1 1
0 1 1 1 1 2 2 2 3 3 4 4 4 5 5 4 4 3 3 2 1 1 1 1 1 1 0 0 0 0 0 0 0 0 0 1 1 1 0 0 0 0 0
0 0 0 0 1 1 1 2 2 3 3 4 4 4 4 4 3 3 2 2 1 1 1 0 0 0 0 0 0 0 0 0 0 0 0 0 0 0 0 0 0 0 0
0 0 0 0 0 0 1 1 1 2 2 3 3 3 3 3 3 3 2 2 1 1 1 0 0 0 0 0 0 0 0 0 0 0 0 0 0 0 0 0 0 0 0
0 0 0 0 0 0 0 0 1 1 1 2 2 2 2 3 2 2 2 1 1 1 1 0 0 0 0 0 0 0 0 0 0 0 0 0 0 0 0 0 0 0 0
0 0 0 0 0 0 0 0 0 1 1 1 2 2 2 2 2 2 1 1 1 1 0 0 0 0 0 0 0 0 0 0 0 0 0 0 0 0 0 0 0 0 0
0 0 0 0 0 0 0 0 0 1 1 1 1 1 1 1 1 1 1 1 0 0 0 0 0 0 0 0 0 0 0 0 0 0 0 0 0 0 0 0 0 0 0
0 0 0 0 0 0 0 0 0 1 1 1 1 1 1 1 1 0 0 0 0 0 0 0 0 0 0 0 0 0 0 0 0 0 0 0 0 0 0 0 0 0 0
0 0 0 0 0 0 0 0 0 0 0 0 1 1 0 0 0 0 0 0 0 0 0 0 0 0 0 0 0 0 0 0 0 0 0 0 0 0 0 0 0 0 0
0 0 0 0 0 0 0 0 0 0 0 0 0 0 0 0 0 0 0 0 0 0 0 0 0 0 0 0 0 0 0 0 0 0 0 0 0 0 0 0 0 0 0
0 0 0 0 0 0 0 0 0 0 0 0 0 0 0 0 0 0 0 0 0 0 0 0 0 0 0 0 0 0 0 0 0 0 0 0 0 0 0 0 0 0 0
0 0 0 0 0 0 0 0 0 0 0 0 0 0 0 0 0 0 0 0 0 0 0 0 0 0 0 0 0 0 0 0 0 0 0 0 0 0 0 0 0 0 0
0 0 0 0 0 0 0 0 0 0 0 0 0 0 0 0 0 0 0 0 0 0 0 0 0 0 0 0 0 0 0 0 0 0 0 0 0 0 0 0 0 0 0
0 0 0 0 0 0 0 0 0 0 0 0 0 0 0 0 0 0 0 0 0 0 0 0 0 0 0 0 0 0 0 0 0 0 0 0 0 0 0 0 0 0 0
0 0 0 0 0 0 0 0 0 0 0 0 0 0 0 0 0 0 0 0 0 0 0 0 0 0 0 0 0 0 0 0 0 0 0 0 0 0 0 0 0 0 0
0 0 0 0 0 0 0 0 0 0 0 0 0 0 0 0 0 0 0 0 0 0 0 0 0 0 0 0 0 0 0 0 0 0 0 0 0 0 0 0 0 0 0
0 0 0 0 0 0 0 0 0 0 0 0 0 0 0 0 0 0 0 0 0 0 0 0 0 0 0 0 0 0 0 0 0 0 0 0 0 0 0 0 0 0 0
0 0 0 0 0 0 0 0 0 0 0 0 0 0 0 0 0 0 0 0 0 0 0 0 0 0 0 0 0 0 0 0 0 0 0 0 0 0 0 0 0 0 0
0 0 0 0 0 0 0 0 0 0 0 0 0 0 0 0 0 0 0 0 0 0 0 0 0 0 0 0 0 0 0 0 0 0 0 0 0 0 0 0 0 0 0
0 0 0 0 0 0 0 0 0 0 0 0 0 0 0 0 0 0 0 0 0 0 0 0 0 0 0 0 0 0 0 0 0 0 0 0 0 0 0 0 0 0 0
0 0 0 0 0 0 0 0 0 0 0 0 0 0 0 0 0 0 0 0 0 0 0 0 0 0 0 0 0 0 0 0 0 0 0 0 0 0 0 0 0 0 0
0 0 0 0 0 0 0 0 0 0 0 0 0 0 0 0 0 0 0 0 0 0 0 0 0 0 0 0 0 0 -0 -0 -0 0 0 0 0 0 0 0 0 0 0
0 0 0 0 0 0 0 0 0 0 0 0 0 0 0 0 0 0 0 0 0 0 0 0 0 0 0 0 0 -0 -0 -0 -0 0 0 0 0 0 0 0 0 0 0
Wind_Speed
1 0 2 5 7 9 11 13 13 13 11 10 10 10 10 10 9 8 9 8 9 9 8 8 7 7 7 8 9 8 9 9 8 9 11 11 12 12 10 11 11 12 12
2 1 1 2 5 6 8 10 12 13 13 11 10 9 9 8 7 4 4 5 6 6 6 8 6 6 5 7 8 7 7 7 6 7 9 9 8 8 8 8 8 9 8
5 5 5 4 5 5 5 6 9 10 12 12 9 7 6 5 5 5 4 5 5 5 4 5 5 5 7 7 7 6 7 7 6 6 6 7 7 6 5 6 7 7 7
6 7 7 7 6 6 6 6 7 8 10 10 11 12 10 9 9 7 6 6 6 5 5 5 5 6 7 6 7 6 6 7 6 5 6 8 7 7 7 7 6 6 7
6 6 6 6 6 7 6 6 7 7 7 9 11 11 11 9 7 6 8 7 6 6 6 6 6 7 7 6 5 4 6 5 6 5 5 6 7 9 7 8 7 7 5
5 5 5 5 6 6 6 7 7 7 7 8 9 10 11 10 9 8 8 7 6 7 9 8 8 8 6 6 6 5 6 5 5 6 5 5 5 5 5 7 7 7 5
6 6 7 7 7 7 7 7 8 9 9 9 9 10 10 10 10 9 9 8 7 7 8 8 7 7 6 6 6 6 5 5 5 5 4 3 3 4 5 5 6 6 4
7 8 8 8 8 9 8 8 8 9 9 9 9 8 8 7 6 7 7 7 6 6 7 7 7 7 7 6 6 6 4 4 3 2 2 1 2 3 3 3 5 5 3
9 9 10 10 10 10 9 9 9 9 10 10 9 8 7 6 5 5 5 4 5 5 6 6 6 6 5 5 5 4 3 3 2 1 1 1 1 2 2 3 4 5 5
9 10 9 10 9 10 9 9 8 9 9 9 8 6 6 4 4 4 4 4 4 4 5 5 5 5 5 5 5 4 2 2 1 1 1 2 2 2 3 3 3 4 5
10 9 8 8 9 9 8 6 6 6 6 7 6 4 2 3 3 2 2 2 3 4 4 4 4 5 5 4 4 3 3 2 3 3 3 4 4 4 4 3 3 3 4
9 8 8 8 7 7 6 4 4 3 4 5 4 2 2 4 4 3 2 1 2 3 4 4 5 5 4 4 4 4 4 5 6 5 5 5 4 4 5 5 5 4 4
9 8 7 6 6 4 3 3 2 2 3 3 5 6 5 5 5 3 1 1 2 3 4 5 5 5 5 5 6 7 7 7 6 6 5 5 5 6 6 6 6 5 5
8 7 6 5 4 3 2 2 1 0 2 2 4 5 4 4 4 3 3 4 5 5 6 6 6 6 7 7 8 8 8 7 7 7 7 7 8 8 7 5 6 6 6
8 7 5 4 4 3 4 4 2 1 1 0 2 5 6 6 7 7 6 5 6 6 6 7 7 7 7 7 8 9 9 9 8 8 8 9 8 8 8 8 8 8 7
8 7 5 5 6 5 6 5 4 3 2 3 4 7 8 8 8 8 7 7 6 7 7 8 8 8 8 9 8 8 10 9 9 8 7 8 7 6 6 7 9 10 9
7 7 6 6 6 7 6 6 5 4 4 3 4 6 9 9 9 9 8 7 7 8 8 8 9 10 9 8 8 7 8 9 8 8 7 8 8 7 7 5 5 8 7
7 7 7 7 7 7 7 7 6 5 4 4 4 6 8 10 9 8 8 7 7 7 7 8 10 10 8 7 7 5 8 9 8 8 8 8 9 9 8 7 8 9 9
7 7 8 8 8 8 8 8 7 7 6 4 4 6 8 10 10 10 9 8 7 8 8 8 9 10 8 5 3 1 7 7 7 7 8 7 8 11 11 5 6 6 5
8 8 8 9 9 9 8 9 9 8 7 5 5 6 8 9 10 10 10 9 8 8 8 8 8 9 8 5 2 2 4 5 5 5 6 10 9 10 12 7 6 6 6
10 10 10 10 10 9 9 10 9 9 8 6 6 7 7 8 8 8 8 8 8 8 8 9 8 7 7 6 3 3 1 3 2 3 3 7 9 9 9 7 6 5 7
11 12 11 11 10 10 10 11 10 8 8 8 8 8 8 8 8 8 8 9 9 10 9 9 8 7 6 6 6 6 5 4 2 1 3 6 6 6 7 6 7 8 8
12 12 13 12 11 12 11 11 9 9 9 9 9 9 9 8 8 9 9 9 9 8 9 9 8 7 7 6 5 5 3 3 1 3 6 4 1 2 3 5 6 6 5
12 13 14 14 13 13 12 11 9 10 10 10 10 9 9 9 9 7 8 8 9 8 8 8 8 8 7 7 7 6 5 5 4 4 5 3 1 1 3 2 1 5 6
11 13 15 15 15 14 13 12 11 11 12 11 10 10 10 9 8 8 5 7 7 6 7 7 8 8 8 6 4 0 2 2 3 3 6 6 5 4 4 4 4 5 5
10 13 16 16 16 15 14 13 12 13 12 11 11 9 9 8 8 9 8 6 4 7 5 3 3 5 9 11 6 4 3 2 1 4 5 4 3 3 4 4 4 5 6
Wind_Direction
73 180 247 242 235 226 222 221 222 214 213 216 218 219 223 226 230 236 250 264 272 274 269 265 264 260 258 264 271 273 272 269 277 280 278 271 262 257 258 260 266 265 261
16 8 323 291 268 252 241 236 230 225 219 223 223 228 233 230 228 230 246 269 278 280 275 273 266 262 267 265 267 266 279 283 276 279 290 286 274 248 246 252 257 268 271
17 11 4 356 333 312 289 272 261 248 235 234 229 225 223 223 217 212 213 220 229 244 236 250 259 266 262 255 254 258 255 266 270 262 275 291 300 323 276 263 264 266 271
32 23 14 7 354 343 329 311 292 272 256 243 237 228 223 223 222 210 207 209 204 217 221 219 230 245 249 246 245 245 256 258 268 262 251 261 281 282 289 272 263 263 263
27 17 8 358 350 343 335 326 314 298 282 263 250 243 239 238 230 213 202 195 189 198 209 215 217 226 235 237 247 247 257 261 272 280 278 273 266 256 264 282 288 284 274
10 1 350 343 338 334 331 329 320 306 293 275 262 250 245 242 230 212 198 193 190 194 200 205 216 222 225 221 230 244 245 265 279 281 281 282 281 283 273 281 290 290 288
334 329 326 327 325 324 326 321 315 306 299 286 273 262 254 245 231 216 200 192 193 195 197 196 210 218 218 221 232 236 259 262 271 278 286 295 301 304 298 291 296 295 299
300 303 305 308 308 310 313 311 308 303 298 289 281 272 257 244 231 214 200 191 196 192 186 195 210 218 217 221 227 241 237 250 259 279 312 321 346 343 339 325 316 310 306
296 293 295 297 298 301 303 304 304 301 299 293 281 265 251 237 214 190 189 184 180 176 185 194 203 208 212 222 231 229 235 240 236 205 199 295 319 308 332 337 338 331 330
297 296 294 292 295 295 296 298 300 304 308 301 287 269 244 213 177 165 162 165 168 168 178 184 186 191 201 209 224 204 186 212 116 88 46 2 350 325 313 321 323 320 318
305 305 301 298 293 289 290 295 306 316 325 326 317 284 225 160 140 132 130 143 164 172 172 176 177 182 189 192 199 180 157 128 88 65 52 39 15 353 344 339 324 316 308
300 302 302 300 294 291 290 291 303 329 352 360 8 20 82 102 89 68 62 122 159 162 160 168 166 165 164 168 157 128 103 87 76 63 54 39 32 17 5 352 352 345 326
294 299 302 303 301 299 285 282 304 352 18 32 55 63 69 83 81 62 56 158 151 146 147 150 146 141 136 124 106 96 86 77 67 58 53 44 33 23 20 2 2 348 340
289 293 296 292 292 280 270 261 259 354 25 52 89 99 103 110 124 157 190 181 156 142 135 132 128 124 117 108 102 96 89 82 76 66 55 43 36 24 9 9 10 359 352
287 287 282 273 260 243 237 246 249 255 310 284 150 158 160 169 170 176 179 166 148 136 131 128 122 115 108 99 100 101 96 92 86 75 67 58 51 42 20 16 14 13 16
288 278 258 243 239 237 238 244 249 259 266 245 195 175 172 177 176 172 167 154 140 134 132 125 116 105 92 79 76 94 98 91 84 78 74 81 63 79 77 54 42 28 23
285 267 249 235 233 235 237 243 242 247 250 234 195 175 172 174 172 165 156 149 142 135 128 123 114 105 98 88 80 74 96 88 77 71 60 56 54 33 60 93 117 72 50
270 255 243 233 228 230 229 235 237 243 243 227 189 169 166 162 158 159 152 149 144 138 134 130 123 119 113 103 98 94 98 91 83 74 68 64 55 32 11 54 63 62 51
251 245 235 230 224 223 223 227 234 237 232 219 187 171 163 159 162 163 159 154 150 144 144 139 137 132 131 132 123 130 113 105 92 77 58 48 57 19 351 34 55 56 65
227 223 219 220 216 217 218 226 232 234 231 213 185 170 166 164 164 161 159 154 151 148 146 138 143 142 139 139 144 272 135 120 118 109 101 68 39 18 1 18 35 36 21
225 213 210 209 212 210 212 226 235 233 227 205 181 172 164 158 153 152 152 151 153 146 138 134 133 133 132 134 110 343 142 126 124 105 89 71 40 28 13 6 30 2 317
232 214 205 204 204 204 209 223 231 227 216 199 185 172 165 161 152 154 154 155 150 147 143 139 137 131 128 115 104 72 49 1 86 54 58 70 48 41 31 32 8 327 313
236 217 206 201 198 199 208 222 221 213 205 196 185 173 167 162 160 162 160 160 167 167 159 157 152 145 136 122 113 106 82 12 10 63 58 50 27 223 117 59 348 339 5
235 218 208 202 198 198 205 216 212 200 200 194 183 175 172 171 168 172 172 176 178 175 170 166 159 153 155 158 164 164 165 173 172 144 135 169 232 169 91 142 37 41 29
239 219 210 204 198 195 199 205 201 196 199 193 184 183 184 180 175 182 173 190 182 176 177 172 168 169 171 135 77 53 151 149 110 165 172 168 157 140 100 79 55 33 26
253 224 215 207 198 193 195 196 194 196 199 194 190 189 189 182 184 175 162 64 81 107 105 101 159 131 120 128 124 105 90 83 301 240 161 141 123 96 73 54 54 48 30